Liberal, KS

11:09 PM CDT on October 23, 2017 (GMT -0500)
Liberal Municipal

Weather History for KLBL - November, 2012

Change the Weather History Date:

Tuesday, November 13, 2012

  Actual Average Record
Temperature  
Mean Temperature 41 °F -  
Max Temperature 59 °F 60 °F 82 °F (1989)
Min Temperature 23 °F 32 °F 3 °F (1940)
Degree Days  
Heating Degree Days 24    
Moisture  
Dew Point 12 °F    
Average Humidity 36    
Maximum Humidity 55    
Minimum Humidity 21    
Precipitation  
Precipitation 0.00 in - - ()
Sea Level Pressure  
Sea Level Pressure 30.25 in    
Wind  
Wind Speed 12 mph (SSW)    
Max Wind Speed 28 mph    
Max Gust Speed 34 mph    
Visibility 10 miles    
Events      
Averages and records for this station are not official NWS values.
T = Trace of Precipitation, MM = Missing Value Source: NWS Daily Summary

Daily Weather History Graph

Daily Weather History Graph

Search for Another Location

Airport or City:

Trip Planner

Search our weather history database for the weather conditions in past years. The results will help you decide how hot, cold, wet, or windy it might be!

Date:

Astronomy

Nov. 13, 2012 Rise Set
Actual Time 7:20 AM CST 5:35 PM CST
Civil Twilight 6:53 AM CST 6:02 PM CST
Nautical Twilight 6:22 AM CST 6:33 PM CST
Astronomical Twilight 5:51 AM CST 7:04 PM CST
Moon 7:00 AM CST (11/13) 5:30 PM CST (11/13)
Length of Visible Light 11h 09m
Length of Day
10h 14m
Waning Crescent, 0% of the Moon is Illuminated
Nov 13
Waning Crescent
Nov 13
New
Nov 20
First Quarter
Nov 28
Full
Dec 6
Last Quarter

Hourly Weather History & Observations

Time (CST) Temp. Windchill Dew Point Humidity Pressure Visibility Wind Dir Wind Speed Gust Speed Precip Events Conditions
12:15 AM 24.8 °F 16.1 °F 1.4 °F 36% 30.37 in 10.0 mi SW 8.1 mph - N/A   Clear
12:35 AM 24.8 °F 16.1 °F 1.4 °F 36% 30.37 in 10.0 mi SSW 8.1 mph - N/A   Clear
12:55 AM 26.6 °F 16.8 °F 1.4 °F 34% 30.37 in 10.0 mi SSW 10.4 mph - N/A   Clear
1:15 AM 26.6 °F 18.2 °F 3.2 °F 37% 30.36 in 10.0 mi SSW 8.1 mph - N/A   Clear
1:35 AM 26.6 °F 16.8 °F 3.2 °F 37% 30.35 in 10.0 mi SSW 10.4 mph - N/A   Clear
1:55 AM 26.6 °F 18.2 °F 3.2 °F 37% 30.35 in 10.0 mi SSW 8.1 mph - N/A   Clear
2:15 AM 26.6 °F 19.1 °F 3.2 °F 37% 30.35 in 10.0 mi SSW 6.9 mph - N/A   Clear
2:35 AM 24.8 °F 16.1 °F 1.4 °F 36% 30.34 in 10.0 mi SSW 8.1 mph - N/A   Clear
2:55 AM 24.8 °F 16.1 °F 3.2 °F 40% 30.34 in 10.0 mi SW 8.1 mph - N/A   Clear
3:35 AM 26.6 °F 18.2 °F 6.8 °F 43% 30.33 in 10.0 mi SSW 8.1 mph - N/A   Clear
3:55 AM 26.6 °F 19.1 °F 5.0 °F 40% 30.32 in 10.0 mi South 6.9 mph - N/A   Clear
4:15 AM 24.8 °F 16.1 °F 5.0 °F 43% 30.31 in 10.0 mi SSW 8.1 mph - N/A   Clear
4:35 AM 24.8 °F 16.9 °F 5.0 °F 43% 30.31 in 10.0 mi SSW 6.9 mph - N/A   Clear
4:55 AM 24.8 °F 16.9 °F 6.8 °F 46% 30.30 in 10.0 mi South 6.9 mph - N/A   Clear
5:15 AM 24.8 °F 16.1 °F 6.8 °F 46% 30.30 in 10.0 mi SSW 8.1 mph - N/A   Clear
5:35 AM 24.8 °F 15.3 °F 6.8 °F 46% 30.31 in 10.0 mi South 9.2 mph - N/A   Clear
5:55 AM 24.8 °F 14.6 °F 6.8 °F 46% 30.30 in 10.0 mi SSW 10.4 mph - N/A   Clear
6:15 AM 23.0 °F 13.1 °F 6.8 °F 50% 30.31 in 10.0 mi SSW 9.2 mph - N/A   Clear
6:35 AM 23.0 °F 13.1 °F 6.8 °F 50% 30.31 in 10.0 mi SSW 9.2 mph - N/A   Clear
6:55 AM 24.8 °F 14.6 °F 8.6 °F 50% 30.30 in 10.0 mi SSW 10.4 mph - N/A   Clear
7:15 AM 24.8 °F 14.6 °F 8.6 °F 50% 30.30 in 10.0 mi South 10.4 mph - N/A   Clear
7:35 AM 23.0 °F 13.1 °F 8.6 °F 54% 30.30 in 10.0 mi South 9.2 mph - N/A   Clear
7:55 AM 24.8 °F 16.1 °F 8.6 °F 50% 30.30 in 10.0 mi South 8.1 mph - N/A   Clear
8:15 AM 26.6 °F 16.8 °F 10.4 °F 51% 30.30 in 10.0 mi South 10.4 mph - N/A   Clear
8:35 AM 30.2 °F 20.8 °F 15.8 °F 55% 30.30 in 10.0 mi SSW 11.5 mph - N/A   Clear
8:55 AM 33.8 °F 23.9 °F 17.6 °F 52% 30.30 in 10.0 mi SSW 15.0 mph - N/A   Clear
9:15 AM 39.2 °F 29.6 °F 19.4 °F 45% 30.31 in 10.0 mi SSW 19.6 mph 24.2 mph N/A   Clear
9:35 AM 42.8 °F 34.5 °F 19.4 °F 39% 30.31 in 10.0 mi SSW 18.4 mph 24.2 mph N/A   Clear
9:55 AM 42.8 °F 34.5 °F 19.4 °F 39% 30.30 in 10.0 mi SSW 18.4 mph 25.3 mph N/A   Clear
10:15 AM 44.6 °F 37.2 °F 19.4 °F 37% 30.30 in 10.0 mi SSW 17.3 mph 20.7 mph N/A   Clear
10:35 AM 46.4 °F 39.2 °F 21.2 °F 37% 30.29 in 10.0 mi SSW 18.4 mph 23.0 mph N/A   Clear
10:55 AM 48.2 °F - 21.2 °F 34% 30.29 in 10.0 mi SSW 20.7 mph 26.5 mph N/A   Clear
11:15 AM 48.2 °F - 19.4 °F 32% 30.28 in 10.0 mi SSW 23.0 mph 28.8 mph N/A   Clear
11:35 AM 50.0 °F - 19.4 °F 30% 30.27 in 10.0 mi SSW 24.2 mph 29.9 mph N/A   Clear
11:55 AM 51.8 °F - 19.4 °F 28% 30.26 in 10.0 mi SSW 20.7 mph 25.3 mph N/A   Clear
12:15 PM 51.8 °F - 19.4 °F 28% 30.25 in 10.0 mi SSW 23.0 mph 26.5 mph N/A   Clear
12:55 PM 53.6 °F - 17.6 °F 24% 30.22 in 10.0 mi South 24.2 mph 29.9 mph N/A   Clear
1:15 PM 55.4 °F - 17.6 °F 23% 30.20 in 10.0 mi South 26.5 mph 32.2 mph N/A   Clear
1:35 PM 55.4 °F - 19.4 °F 25% 30.18 in 10.0 mi South 25.3 mph 32.2 mph N/A   Clear
1:55 PM 55.4 °F - 17.6 °F 23% 30.17 in 10.0 mi South 27.6 mph 32.2 mph N/A   Clear
2:15 PM 55.4 °F - 17.6 °F 23% 30.17 in 10.0 mi South 25.3 mph 34.5 mph N/A   Clear
2:35 PM 55.4 °F - 17.6 °F 23% 30.16 in 10.0 mi South 23.0 mph 29.9 mph N/A   Clear
2:55 PM 57.2 °F - 19.4 °F 23% 30.16 in 10.0 mi South 20.7 mph 32.2 mph N/A   Clear
3:15 PM 57.2 °F - 19.4 °F 23% 30.15 in 10.0 mi South 21.9 mph 33.4 mph N/A   Clear
3:35 PM 57.2 °F - 17.6 °F 21% 30.15 in 10.0 mi South 26.5 mph 29.9 mph N/A   Clear
3:55 PM 59.0 °F - 19.4 °F 22% 30.15 in 10.0 mi SSW 19.6 mph 29.9 mph N/A   Clear
4:15 PM 57.2 °F - 17.6 °F 21% 30.15 in 10.0 mi SSW 21.9 mph 26.5 mph N/A   Clear
4:35 PM 57.2 °F - 17.6 °F 21% 30.15 in 10.0 mi SSW 21.9 mph 25.3 mph N/A   Clear
4:55 PM 57.2 °F - 17.6 °F 21% 30.15 in 10.0 mi SSW 15.0 mph - N/A   Clear
5:15 PM 55.4 °F - 17.6 °F 23% 30.16 in 10.0 mi SSW 13.8 mph - N/A   Clear
5:35 PM 51.8 °F - 15.8 °F 24% 30.16 in 10.0 mi South 10.4 mph - N/A   Clear
5:55 PM 46.4 °F 41.9 °F 14.0 °F 27% 30.16 in 10.0 mi South 9.2 mph - N/A   Clear
6:15 PM 44.6 °F 39.7 °F 15.8 °F 31% 30.16 in 10.0 mi South 9.2 mph - N/A   Clear
6:35 PM 42.8 °F 38.0 °F 15.8 °F 34% 30.17 in 10.0 mi South 8.1 mph - N/A   Clear
6:55 PM 39.2 °F 33.6 °F 12.2 °F 33% 30.18 in 10.0 mi South 8.1 mph - N/A   Clear
7:15 PM 39.2 °F 30.8 °F 15.8 °F 39% 30.19 in 10.0 mi West 15.0 mph - N/A   Clear
7:35 PM 44.6 °F 40.7 °F 19.4 °F 37% 30.18 in 10.0 mi SW 6.9 mph - N/A   Clear
7:55 PM 39.2 °F 33.0 °F 12.2 °F 33% 30.20 in 10.0 mi WSW 9.2 mph - N/A   Clear
8:15 PM 35.6 °F 27.5 °F 12.2 °F 38% 30.21 in 10.0 mi WNW 11.5 mph - N/A   Clear
8:35 PM 35.6 °F 28.0 °F 10.4 °F 35% 30.21 in 10.0 mi WNW 10.4 mph - N/A   Clear
8:55 PM 33.8 °F 25.3 °F 10.4 °F 38% 30.22 in 10.0 mi WNW 11.5 mph - N/A   Clear
9:15 PM 33.8 °F 25.8 °F 8.6 °F 35% 30.22 in 10.0 mi WNW 10.4 mph - N/A   Clear
9:35 PM 30.2 °F 23.4 °F 6.8 °F 37% 30.23 in 10.0 mi WNW 6.9 mph - N/A   Clear
9:55 PM 28.4 °F 20.4 °F 6.8 °F 40% 30.24 in 10.0 mi NW 8.1 mph - N/A   Clear
10:15 PM 28.4 °F 18.5 °F 8.6 °F 43% 30.24 in 10.0 mi WNW 11.5 mph - N/A   Clear
10:35 PM 30.2 °F 20.8 °F 8.6 °F 40% 30.24 in 10.0 mi WNW 11.5 mph - N/A   Clear
10:55 PM 30.2 °F 21.3 °F 8.6 °F 40% 30.24 in 10.0 mi West 10.4 mph - N/A   Clear
11:15 PM 30.2 °F 21.3 °F 8.6 °F 40% 30.25 in 10.0 mi West 10.4 mph - N/A   Clear
11:35 PM 32.0 °F 23.0 °F 8.6 °F 38% 30.25 in 10.0 mi WNW 11.5 mph - N/A   Clear
11:55 PM 32.0 °F 24.2 °F 8.6 °F 38% 30.25 in 10.0 mi West 9.2 mph - N/A   Clear